Location: Newark
(35.6799°N, 139.7636°E)
Time: 16:43:18
(UTC+00:00)

Explorer 7 - Pass Details

Date: 07 December 2019
Orbit: 485 x 679 km, 50.3° (Epoch: 19 January)

Event Time Altitude Azimuth Distance (km) Brightness Sun altitude
Rises 09:55:56 0° 291° (WNW) 3,031 11.5 -29.5°
Reaches altitude 10° 09:59:15 10° 313° (NW) 2,115 10.2 -30.1°
Enters shadow 10:01:05 15° 335° (NNW) 1,821 9.6 -30.5°
Maximum altitude 10:02:08 15° 350° (N) 1,769 - -30.7°
Drops below altitude 10° 10:05:01 10° 26° (NNE) 2,091 - -31.3°
Sets 10:08:16 0° 49° (NE) 2,977 - -31.9°
